Weather History for Phoenix-Mesa Gateway Airport, AZ

Change the Weather History Date:

Sunday, December 2, 2012

  Actual Average Record
Temperature  
Mean Temperature 60 °F -  
Max Temperature 73 °F 65 °F 77 °F (2008)
Min Temperature 46 °F 41 °F 32 °F (2004)
Degree Days  
Heating Degree Days 6    
Growing Degree Days 10 (Base 50)    
Moisture  
Dew Point 36 °F    
Average Humidity 49    
Maximum Humidity 62    
Minimum Humidity 27    
Precipitation  
Precipitation 0.00 in - - ()
Sea Level Pressure  
Sea Level Pressure 30.06 in    
Wind  
Wind Speed 5 mph (ESE)    
Max Wind Speed 8 mph    
Max Gust Speed -    
Visibility 12 miles    
Events      
Averages and records for this station are not official NWS values.
T = Trace of Precipitation, MM = Missing Value Source: NWS Daily Summary

Daily Weather History Graph

Daily Weather History Graph

Search for Another Location

Airport:

Trip Planner

Search our weather history database for the weather conditions in past years. The results will help you decide how hot, cold, wet, or windy it might be!

Date:

Astronomy

Dec. 02, 2012 Rise Set
Actual Time 7:13 AM MST 5:18 PM MST
Civil Twilight 6:46 AM MST 5:46 PM MST
Nautical Twilight 6:15 AM MST 6:16 PM MST
Astronomical Twilight 5:45 AM MST 6:46 PM MST
Moon 9:04 PM MST (12/2) 10:09 AM MST (12/2)
Length of Visible Light 10h 59m
Length of Day
10h 05m
Waning Gibbous, 85% of the Moon is Illuminated
Dec 2
Waning Gibbous
Dec 6
Last Quarter
Dec 13
New
Dec 19
First Quarter
Dec 28
Full

Hourly Weather History & Observations

Time (MST) Temp. Windchill Dew Point Humidity Pressure Visibility Wind Dir Wind Speed Gust Speed Precip Events Conditions
12:15 AM 51.8 °F - 39.2 °F 62% 30.07 in 10.0 mi SE 5.8 mph - N/A   Clear
12:35 AM 50.0 °F - 37.4 °F 62% 30.08 in 10.0 mi ESE 5.8 mph - N/A   Clear
12:55 AM 51.8 °F - 37.4 °F 58% 30.07 in 10.0 mi ESE 6.9 mph - N/A   Clear
1:15 AM 50.0 °F - 37.4 °F 62% 30.07 in 10.0 mi SE 6.9 mph - N/A   Clear
1:55 AM 50.0 °F - 37.4 °F 62% 30.07 in 10.0 mi SE 6.9 mph - N/A   Clear
2:15 AM 50.0 °F - 35.6 °F 58% 30.07 in 10.0 mi ESE 8.1 mph - N/A   Clear
2:35 AM 50.0 °F - 35.6 °F 58% 30.07 in 10.0 mi ESE 6.9 mph - N/A   Clear
2:55 AM 51.8 °F - 37.4 °F 58% 30.07 in 10.0 mi ESE 6.9 mph - N/A   Clear
3:15 AM 50.0 °F - 35.6 °F 58% 30.07 in 10.0 mi ESE 6.9 mph - N/A   Clear
3:35 AM 50.0 °F - 35.6 °F 58% 30.07 in 10.0 mi ESE 6.9 mph - N/A   Clear
3:55 AM 50.0 °F - 35.6 °F 58% 30.08 in 10.0 mi Calm Calm - N/A   Clear
4:15 AM 46.4 °F 45.2 °F 33.8 °F 62% 30.07 in 10.0 mi East 3.5 mph - N/A   Clear
4:35 AM 46.4 °F 43.5 °F 33.8 °F 62% 30.07 in 10.0 mi East 5.8 mph - N/A   Clear
4:55 AM 46.4 °F 45.2 °F 33.8 °F 62% 30.07 in 10.0 mi East 3.5 mph - N/A   Clear
5:15 AM 46.4 °F 43.5 °F 33.8 °F 62% 30.07 in 10.0 mi East 5.8 mph - N/A   Clear
5:47 AM 48.2 °F - 33.8 °F 58% 30.09 in 20.0 mi ESE 3.5 mph - N/A   Partly Cloudy
6:47 AM 50.0 °F - 35.6 °F 58% 30.09 in 20.0 mi SE 6.9 mph - N/A   Partly Cloudy
7:47 AM 46.4 °F 42.9 °F 33.8 °F 62% 30.09 in 35.0 mi ESE 6.9 mph - N/A   Clear
8:47 AM 53.6 °F - 37.4 °F 54% 30.10 in 35.0 mi SE 5.8 mph - N/A   Clear
9:47 AM 57.2 °F - 35.6 °F 44% 30.11 in 30.0 mi Calm Calm - N/A   Clear
10:47 AM 62.6 °F - 35.6 °F 37% 30.11 in 30.0 mi Variable 3.5 mph - N/A   Clear
11:47 AM 66.2 °F - 35.6 °F 32% 30.10 in 30.0 mi Variable 4.6 mph - N/A   Clear
12:47 PM 71.6 °F - 37.4 °F 29% 30.06 in 30.0 mi Calm Calm - N/A   Clear
1:47 PM 73.4 °F - 37.4 °F 27% 30.04 in 30.0 mi West 4.6 mph - N/A   Clear
2:47 PM 73.4 °F - 37.4 °F 27% 30.02 in 35.0 mi Calm Calm - N/A   Partly Cloudy
3:47 PM 73.4 °F - 37.4 °F 27% 30.02 in 35.0 mi NW 3.5 mph - N/A   Partly Cloudy
4:47 PM 73.4 °F - 37.4 °F 27% 30.02 in 35.0 mi West 3.5 mph - N/A   Partly Cloudy
5:47 PM 73.4 °F - 39.2 °F 29% 30.03 in 20.0 mi Calm Calm - N/A   Partly Cloudy
6:47 PM 64.4 °F - 37.4 °F 37% 30.04 in 20.0 mi Calm Calm - N/A   Partly Cloudy
7:47 PM 60.8 °F - 37.4 °F 42% 30.04 in 20.0 mi East 4.6 mph - N/A   Partly Cloudy
7:55 PM 60.8 °F - 35.6 °F 39% 30.05 in 10.0 mi East 4.6 mph - N/A   Clear
8:15 PM 59.0 °F - 35.6 °F 42% 30.05 in 10.0 mi East 4.6 mph - N/A   Clear
8:35 PM 57.2 °F - 35.6 °F 44% 30.05 in 10.0 mi ESE 5.8 mph - N/A   Clear
8:47 PM 57.2 °F - 35.6 °F 44% 30.05 in 20.0 mi ESE 3.5 mph - N/A   Clear
8:55 PM 57.2 °F - 35.6 °F 44% 30.05 in 10.0 mi SE 4.6 mph - N/A   Clear
9:15 PM 55.4 °F - 35.6 °F 47% 30.05 in 10.0 mi SSE 4.6 mph - N/A   Clear
9:35 PM 55.4 °F - 35.6 °F 47% 30.07 in 10.0 mi East 4.6 mph - N/A   Clear
9:55 PM 55.4 °F - 35.6 °F 47% 30.06 in 10.0 mi ESE 5.8 mph - N/A   Clear
10:15 PM 55.4 °F - 35.6 °F 47% 30.07 in 10.0 mi East 6.9 mph - N/A   Clear
10:35 PM 55.4 °F - 35.6 °F 47% 30.06 in 10.0 mi ESE 6.9 mph - N/A   Clear
10:55 PM 55.4 °F - 35.6 °F 47% 30.05 in 10.0 mi ESE 6.9 mph - N/A   Clear
11:15 PM 51.8 °F - 35.6 °F 54% 30.05 in 10.0 mi SE 4.6 mph - N/A   Clear
11:35 PM 51.8 °F - 35.6 °F 54% 30.06 in 10.0 mi ESE 5.8 mph - N/A   Clear
11:55 PM 51.8 °F - 35.6 °F 54% 30.05 in 10.0 mi ESE 6.9 mph - N/A   Clear